Leadville, CO

6:21 PM MST on November 22, 2019 (GMT -0700)
Lake County

Weather History for KLXV - September, 2019

Change the Weather History Date:

Wednesday, September 25, 2019

  Actual Average Record
Temperature  
Mean Temperature 48 °F -  
Max Temperature 68 °F 58 °F 73 °F (2014)
Min Temperature 28 °F 28 °F 14 °F (2000)
Degree Days  
Heating Degree Days 17 22  
Month to date heating degree days 371 461  
Since 1 July heating degree days 964 1183  
Cooling Degree Days 0 0  
Month to date cooling degree days 0 0  
Year to date cooling degree days 0 0  
Moisture  
Dew Point 22 °F    
Average Humidity 38    
Maximum Humidity 58    
Minimum Humidity 18    
Precipitation  
Precipitation 0.00 in 0.03 in 0.15 in (1985)
Month to date precipitation 0.31 0.94  
Year to date precipitation 12.85 9.89  
Sea Level Pressure  
Sea Level Pressure 29.91 in    
Wind  
Wind Speed 8 mph (NNE)    
Max Wind Speed 18 mph    
Max Gust Speed 33 mph    
Visibility 10 miles    
Events      
T = Trace of Precipitation, MM = Missing Value Source: NWS Daily Summary

Daily Weather History Graph

Daily Weather History Graph

Search for Another Location

Airport or City:

Astronomy

Sep. 25, 2019 Rise Set
Actual Time 6:55 AM MDT 6:57 PM MDT
Civil Twilight 6:28 AM MDT 7:24 PM MDT
Nautical Twilight 5:57 AM MDT 7:55 PM MDT
Astronomical Twilight 5:26 AM MDT 8:27 PM MDT
Moon 2:54 AM MDT (9/25) 5:29 PM MDT (9/25)
Length of Visible Light 12h 55m
Length of Day
12h 02m
Waning Crescent, 13% of the Moon is Illuminated
Sep 25
Waning Crescent
Sep 28
New
Oct 5
First Quarter
Oct 13
Full
Oct 21
Last Quarter

Hourly Weather History & Observations

Time (MDT) Temp. Windchill Dew Point Humidity Pressure Visibility Wind Dir Wind Speed Gust Speed Precip Events Conditions
12:53 AM 34.0 °F 27.2 °F 18.0 °F 52% 29.95 in 10.0 mi ENE 8.1 mph - N/A   Clear
1:53 AM 37.9 °F 32.1 °F 19.0 °F 47% 29.89 in 10.0 mi ENE 8.1 mph - N/A   Clear
2:53 AM 32.0 °F 24.8 °F 18.0 °F 56% 29.91 in 10.0 mi NE 8.1 mph - N/A   Clear
3:53 AM 37.0 °F 30.4 °F 19.0 °F 48% 29.86 in 10.0 mi NE 9.2 mph - N/A   Clear
4:53 AM 34.0 °F 28.0 °F 19.0 °F 54% 29.88 in 10.0 mi NE 6.9 mph - N/A   Clear
5:53 AM 34.0 °F 31.0 °F 19.0 °F 54% 29.91 in 10.0 mi SSW 3.5 mph - N/A   Clear
6:53 AM 30.0 °F 24.1 °F 18.0 °F 61% 29.98 in 10.0 mi East 5.8 mph - N/A   Clear
7:53 AM 33.1 °F - 19.0 °F 56% 30.00 in 10.0 mi Calm Calm - N/A   Clear
8:53 AM 46.9 °F - 21.9 °F 37% 29.94 in 10.0 mi NNE 3.5 mph - N/A   Clear
9:53 AM 55.9 °F - 24.1 °F 29% 29.92 in 10.0 mi North 5.8 mph - N/A   Clear
10:53 AM 60.1 °F - 25.0 °F 26% 29.90 in 10.0 mi Variable 6.9 mph 19.6 mph N/A   Clear
11:53 AM 64.0 °F - 25.0 °F 23% 29.86 in 10.0 mi NNW 16.1 mph 26.5 mph N/A   Clear
12:53 PM 64.0 °F - 25.0 °F 23% 29.89 in 10.0 mi WNW 10.4 mph 19.6 mph N/A   Clear
1:53 PM 66.0 °F - 25.0 °F 21% 29.84 in 10.0 mi WNW 11.5 mph 23.0 mph N/A   Clear
2:53 PM 66.9 °F - 23.0 °F 19% 29.85 in 10.0 mi NW 12.7 mph 24.2 mph N/A   Clear
3:53 PM 66.9 °F - 21.0 °F 17% 29.83 in 10.0 mi NW 13.8 mph 24.2 mph N/A   Clear
4:53 PM 66.9 °F - 23.0 °F 19% 29.85 in 10.0 mi NW 13.8 mph 20.7 mph N/A   Clear
5:53 PM 64.0 °F - 23.0 °F 21% 29.89 in 10.0 mi WNW 13.8 mph 23.0 mph N/A   Clear
6:53 PM 59.0 °F - 23.0 °F 25% 29.95 in 10.0 mi NW 9.2 mph - N/A   Clear
7:53 PM 52.0 °F - 23.0 °F 32% 29.99 in 10.0 mi North 4.6 mph - N/A   Clear
8:53 PM 48.0 °F - 23.0 °F 37% 29.95 in 10.0 mi NE 5.8 mph - N/A   Clear
9:53 PM 46.0 °F 43.1 °F 24.1 °F 42% 29.92 in 10.0 mi NE 5.8 mph - N/A   Clear
10:53 PM 44.1 °F 41.5 °F 24.1 °F 45% 29.91 in 10.0 mi ENE 4.6 mph - N/A   Clear
11:53 PM 42.1 °F 40.2 °F 24.1 °F 49% 29.90 in 10.0 mi East 3.5 mph - N/A   Clear